[[{"header":{"parameterUnit":"m.s-1","parameterCategory":1,"la1":30.2991,"la2":30.254,"lo1":-89.0895,"lo2":-89.0444,"dy":0.0017,"dx":0.0017,"nx":28,"ny":28,"refTime":"2024-05-05T09:00:00:Z","depth":0,"parameterNumber":2,"parameterNumberName":"U-component_of_WINDS"},"data":[0,0,0,0,0,0,0,0,0,0,0,0,0,0,0,0,0,0,0,0,0,0,0,0,0,0,0,0,0,0,0,0,0,0,0,0,0,0,0,0,0,0,0,0,0,0,0,0,0,0,0,0,0,0,0,0,0,0,-0.3271,-0.3271,0,-0.3347,-0.3347,-0.3348,-0.339,-0.339,-0.339,-0.339,-0.3471,-0.3473,-0.3475,0,0,0,0,0,0,0,0,0,0,0,0,0,-0.3165,-0.3166,-0.3271,-0.3271,-0.3272,-0.3346,-0.3348,-0.3349,-0.339,-0.339,-0.339,-0.339,-0.347,-0.3472,-0.3475,0,0,0,0,0,0,0,0,0,0,0,0,0,-0.3223,-0.3167,-0.327,-0.3302,-0.3305,-0.3346,-0.3348,-0.3349,-0.339,-0.339,-0.339,-0.339,-0.3469,-0.3472,-0.3475,-0.3491,0,0,-0.3484,-0.3486,0,0,0,0,0,0,0,0,-0.3219,-0.3227,-0.3296,-0.33,-0.3304,-0.3359,-0.334,-0.3397,-0.339,-0.3358,-0.339,-0.339,-0.3433,-0.3439,-0.3453,-0.3495,-0.3498,-0.3485,-0.3487,-0.3488,-0.3489,0,0,0,0,0,0,0,-0.3215,-0.3224,-0.3301,-0.3297,-0.3302,-0.3313,-0.3322,-0.3351,-0.3394,-0.3361,-0.3364,-0.3372,-0.3436,-0.345,-0.3456,-0.35,-0.3485,-0.3487,-0.3489,-0.349,-0.356,-0.356,0,0,0,0,0,0,-0.3206,-0.322,-0.3298,-0.3303,-0.3261,-0.3315,-0.3325,-0.3341,-0.3394,-0.3402,-0.3372,-0.3374,-0.3445,-0.3452,-0.3459,-0.3482,-0.3488,-0.3491,-0.3493,-0.356,-0.356,-0.356,0,0,0,0,0,0,-0.3203,-0.3212,-0.3295,-0.3262,-0.3274,-0.3317,-0.3335,-0.3343,-0.3357,-0.3402,-0.341,-0.3379,-0.3445,-0.3454,-0.3483,-0.3485,-0.3492,-0.3495,-0.356,-0.356,-0.356,-0.3528,0,0,0,0,0,0,-0.32,-0.3211,-0.3217,-0.3262,-0.3275,-0.3317,-0.3335,-0.3344,-0.3362,-0.3365,-0.3411,-0.3419,-0.3446,-0.3478,-0.3486,-0.349,-0.3497,-0.356,-0.356,-0.356,-0.3529,-0.3527,-0.3525,0,0,0,0,0,-0.3196,-0.3205,-0.3217,-0.3226,-0.3283,-0.3317,-0.3325,-0.3356,-0.3362,-0.3369,-0.3398,-0.3417,-0.3484,-0.3481,-0.349,-0.3494,-0.356,-0.356,-0.356,-0.353,-0.3527,-0.3525,0,0,0,0,0,0,-0.3159,-0.3211,-0.3225,-0.3249,-0.3278,-0.3324,-0.3333,-0.3352,-0.338,-0.3382,-0.342,-0.343,-0.3455,-0.3478,-0.3474,-0.3514,-0.3524,-0.3526,-0.3498,-0.3496,-0.3494,-0.3488,-0.35,0,0,0,0,0,-0.3154,-0.3176,-0.3221,-0.3237,-0.3251,-0.329,-0.3306,-0.3327,-0.3359,-0.3372,-0.3403,-0.3435,-0.3463,-0.3481,-0.3509,-0.3532,-0.3544,-0.354,-0.3538,-0.3536,-0.3538,-0.3553,-0.3552,-0.356,-0.356,-0.356,0,0,-0.3143,-0.3174,-0.3186,-0.3231,-0.3256,-0.328,-0.33,-0.3323,-0.3342,-0.3376,-0.3405,-0.3429,-0.3467,-0.3493,-0.3506,-0.3513,-0.3538,-0.3536,-0.3534,-0.3537,-0.3553,-0.3552,-0.3552,-0.356,-0.356,-0.356,0,0,-0.3135,-0.3161,-0.3178,-0.3203,-0.3241,-0.3266,-0.327,-0.3314,-0.3331,-0.336,-0.3387,-0.341,-0.3457,-0.3483,-0.3502,-0.3506,-0.3525,-0.3514,-0.3504,-0.3518,-0.3518,-0.3517,-0.352,-0.352,-0.3515,-0.3515,-0.3515,0,-0.3117,-0.3152,-0.3184,-0.3207,-0.3226,-0.3258,-0.3276,-0.3299,-0.3345,-0.3358,-0.3364,-0.3425,-0.3453,-0.3486,-0.3487,-0.3502,-0.3509,-0.3509,-0.3515,-0.3515,-0.3515,-0.3518,-0.3518,-0.3514,-0.3514,-0.3514,-0.3514,0,-0.3129,-0.3153,-0.3163,-0.3205,-0.3226,-0.3246,-0.3282,-0.33,-0.3319,-0.3345,-0.3375,-0.3409,-0.3446,-0.3455,-0.3475,-0.3492,-0.3495,-0.3508,-0.3519,-0.3513,-0.3516,-0.3517,-0.3511,-0.3512,-0.3512,-0.3513,0,0,-0.31,-0.316,-0.3163,-0.3183,-0.3228,-0.3248,-0.327,-0.3305,-0.332,-0.335,-0.3371,-0.3411,-0.3423,-0.3445,-0.3468,-0.3481,-0.3483,-0.3493,-0.3494,-0.349,-0.3505,-0.3496,-0.3496,-0.3496,-0.3496,-0.3496,-0.3502,0,-0.3099,-0.3139,-0.3169,-0.3199,-0.3223,-0.3253,-0.3273,-0.3303,-0.3328,-0.3353,-0.338,-0.3408,-0.3422,-0.3435,-0.3449,-0.3479,-0.3486,-0.3479,-0.3516,-0.3517,-0.3506,-0.3498,-0.3487,-0.3491,-0.3504,-0.3504,-0.3504,0,-0.3103,-0.3132,-0.3164,-0.3207,-0.3218,-0.3235,-0.327,-0.3293,-0.3328,-0.3345,-0.337,-0.3394,-0.3421,-0.3429,-0.3467,-0.3462,-0.3479,-0.3496,-0.3497,-0.3502,-0.351,-0.3503,-0.3493,-0.3494,-0.3506,-0.3506,-0.3506,0,-0.308,-0.3127,-0.3152,-0.3168,-0.3219,-0.3231,-0.3252,-0.3288,-0.3307,-0.3338,-0.3352,-0.3386,-0.3404,-0.3431,-0.3464,-0.3467,-0.3498,-0.3509,-0.3514,-0.3514,-0.352,-0.3519,-0.3513,-0.353,-0.353,-0.353,-0.353,0,-0.3076,-0.3094,-0.3142,-0.3158,-0.318,-0.3215,-0.3236,-0.3261,-0.3292,-0.3314,-0.3344,-0.3364,-0.3406,-0.3432,-0.3458,-0.3486,-0.3494,-0.3509,-0.3516,-0.3507,-0.3505,-0.3519,-0.352,-0.353,-0.353,-0.353,-0.353,0,-0.3053,-0.3086,-0.3116,-0.3161,-0.3173,-0.3188,-0.3228,-0.3245,-0.3271,-0.3299,-0.3307,-0.3349,-0.3381,-0.3416,-0.346,-0.3478,-0.3504,-0.3514,-0.3492,-0.3496,-0.3499,-0.3498,-0.3502,-0.3505,-0.3519,-0.3519,-0.3519,0,-0.3049,-0.3064,-0.3111,-0.3127,-0.3148,-0.3174,-0.3194,-0.323,-0.3249,-0.3292,-0.3304,-0.3338,-0.3367,-0.3417,-0.3452,-0.3486,-0.3497,-0.3496,-0.3502,-0.3493,-0.3498,-0.3497,-0.3499,-0.3494,-0.3494,-0.3493,-0.3493,0,-0.3038,-0.3053,-0.308,-0.3114,-0.3136,-0.3164,-0.3194,-0.3206,-0.3248,-0.3269,-0.3301,-0.3324,-0.3369,-0.3403,-0.3441,-0.3465,-0.3487,-0.3491,-0.3494,-0.3485,-0.3472,-0.348,-0.3487,-0.3491,-0.3491,-0.3491,-0.3491,-0.3491,-0.3025,-0.304,-0.3075,-0.3105,-0.3131,-0.3158,-0.3176,-0.3205,-0.3232,-0.3271,-0.3291,-0.3324,-0.336,-0.3414,-0.3438,-0.3465,-0.3471,-0.3476,-0.3477,-0.3477,-0.3475,-0.3467,-0.3472,-0.3472,-0.3472,-0.3472,-0.3472,0,-0.3016,-0.304,-0.3067,-0.3107,-0.3131,-0.3148,-0.3182,-0.3201,-0.3229,-0.3261,-0.3289,-0.3327,-0.336,-0.3398,-0.3434,-0.3449,-0.3459,-0.3457,-0.3457,-0.3462,-0.3467,-0.3461,-0.3448,-0.3448,-0.3448,-0.3448,-0.3448,-0.3448,-0.3014,-0.3041,-0.3061,-0.3101,-0.3126,-0.3158,-0.3175,-0.3201,-0.3227,-0.3268,-0.3295,-0.3319,-0.3354,-0.3393,-0.3425,-0.3435,-0.3448,-0.3442,-0.3456,-0.3459,-0.3461,-0.3463,-0.3458,-0.3444,-0.3444,-0.3449,-0.3449,-0.3449]},{"header":{"parameterUnit":"m.s-1","parameterCategory":1,"la1":30.2991,"la2":30.254,"lo1":-89.0895,"lo2":-89.0444,"dy":0.0017,"dx":0.0017,"nx":28,"ny":28,"refTime":"2024-05-05T09:00:00:Z","depth":0,"parameterNumber":3,"parameterNumberName":"V-component_of_WINDS"},"data":[0,0,0,0,0,0,0,0,0,0,0,0,0,0,0,0,0,0,0,0,0,0,0,0,0,0,0,0,0,0,0,0,0,0,0,0,0,0,0,0,0,0,0,0,0,0,0,0,0,0,0,0,0,0,0,0,0,0,5.665,5.665,0,5.6682,5.6682,5.6683,5.6612,5.6609,5.6607,5.6605,5.6634,5.6636,5.6639,0,0,0,0,0,0,0,0,0,0,0,0,0,5.6522,5.6525,5.665,5.665,5.6651,5.6682,5.6682,5.6683,5.6612,5.6609,5.6607,5.6604,5.6633,5.6636,5.664,0,0,0,0,0,0,0,0,0,0,0,0,0,5.6568,5.6526,5.665,5.6619,5.6617,5.6682,5.6682,5.6683,5.6613,5.6609,5.6606,5.6603,5.6632,5.6636,5.664,5.6735,0,0,5.6653,5.6655,0,0,0,0,0,0,0,0,5.6566,5.6573,5.6623,5.6621,5.6619,5.664,5.6648,5.67,5.6614,5.6614,5.6605,5.6601,5.6638,5.6642,5.6655,5.6736,5.6737,5.6654,5.6656,5.6658,5.6659,0,0,0,0,0,0,0,5.6563,5.6571,5.6662,5.6624,5.6621,5.6602,5.6605,5.6657,5.6645,5.6614,5.6609,5.6614,5.6636,5.6651,5.6655,5.6738,5.6653,5.6657,5.666,5.6662,5.6898,5.6901,0,0,0,0,0,0,5.6564,5.6569,5.6661,5.6663,5.6584,5.6607,5.6611,5.6636,5.6644,5.6642,5.6617,5.661,5.6645,5.665,5.6656,5.6767,5.6658,5.6662,5.6665,5.6894,5.6899,5.6902,0,0,0,0,0,0,5.6562,5.6573,5.666,5.6615,5.6625,5.6613,5.6643,5.6639,5.6653,5.6646,5.6643,5.6635,5.6643,5.665,5.6716,5.6767,5.6664,5.6668,5.689,5.6895,5.6901,5.699,0,0,0,0,0,0,5.6558,5.6573,5.661,5.6616,5.6627,5.6721,5.6646,5.6642,5.6662,5.6654,5.6662,5.666,5.6641,5.671,5.672,5.6771,5.6671,5.6885,5.6892,5.6899,5.6983,5.6998,5.7011,0,0,0,0,0,5.6554,5.6633,5.6612,5.6623,5.6674,5.6724,5.673,5.6708,5.6666,5.6702,5.6698,5.666,5.676,5.6717,5.6728,5.6781,5.6882,5.689,5.6898,5.6976,5.6995,5.7011,0,0,0,0,0,0,5.663,5.6633,5.661,5.6693,5.671,5.6712,5.6757,5.6728,5.6755,5.6747,5.6716,5.6718,5.679,5.6792,5.6745,5.6873,5.6814,5.6824,5.6869,5.6887,5.6901,5.6899,5.6675,0,0,0,0,0,5.6657,5.67,5.6699,5.6773,5.6782,5.6769,5.679,5.6771,5.6786,5.6792,5.6792,5.6806,5.6841,5.6864,5.6895,5.6983,5.6983,5.7025,5.7039,5.7051,5.706,5.7106,5.7124,5.693,5.693,5.6929,0,0,5.6712,5.6719,5.6748,5.6788,5.6798,5.6842,5.6775,5.6823,5.6855,5.6798,5.6861,5.6862,5.6876,5.6953,5.6987,5.6957,5.7114,5.7061,5.7071,5.7074,5.7117,5.7135,5.7151,5.6935,5.6934,5.6933,0,0,5.6835,5.6845,5.6908,5.692,5.6936,5.6927,5.6942,5.695,5.6948,5.7011,5.697,5.7006,5.7067,5.7078,5.7092,5.722,5.7186,5.7231,5.7306,5.7351,5.7366,5.738,5.7424,5.7441,5.7241,5.7241,5.7241,0,5.6901,5.6966,5.6943,5.6995,5.7013,5.6966,5.7028,5.704,5.7066,5.7079,5.7046,5.7121,5.7127,5.7206,5.7237,5.7251,5.7266,5.7229,5.7366,5.7379,5.7391,5.7434,5.7451,5.7246,5.7246,5.7245,5.7244,0,5.7046,5.7092,5.714,5.7168,5.7192,5.7249,5.7232,5.7259,5.7239,5.7233,5.7297,5.7303,5.7334,5.7352,5.7331,5.7428,5.7409,5.7372,5.7311,5.7416,5.7455,5.7471,5.7254,5.7252,5.725,5.7249,0,0,5.7217,5.7232,5.725,5.7262,5.7278,5.7312,5.7366,5.7398,5.7422,5.7441,5.7485,5.7537,5.7503,5.7519,5.7499,5.7539,5.7639,5.7496,5.7496,5.7522,5.7745,5.7773,5.7792,5.7617,5.762,5.7623,5.7744,0,5.7338,5.7433,5.7414,5.7506,5.7547,5.7503,5.755,5.7564,5.756,5.7593,5.7588,5.7625,5.7577,5.7587,5.7624,5.7619,5.7684,5.761,5.7656,5.7658,5.7654,5.7813,5.7842,5.7956,5.7759,5.7762,5.7764,0,5.7492,5.7519,5.7616,5.7625,5.7642,5.7684,5.7713,5.7746,5.776,5.7754,5.7772,5.7745,5.7797,5.7737,5.7808,5.7759,5.7777,5.7777,5.7781,5.7784,5.7717,5.7819,5.7992,5.8009,5.7788,5.7786,5.7784,0,5.7606,5.7667,5.7732,5.7744,5.7756,5.7787,5.7793,5.7805,5.7826,5.785,5.7863,5.7892,5.7908,5.7931,5.7913,5.7871,5.7986,5.7925,5.7982,5.7982,5.8007,5.8006,5.8185,5.802,5.802,5.802,5.802,0,5.7743,5.7804,5.7784,5.7824,5.7891,5.7867,5.7933,5.7934,5.7945,5.7983,5.7947,5.7983,5.7957,5.7991,5.7977,5.8038,5.8045,5.8041,5.8036,5.8044,5.8044,5.8054,5.8045,5.8024,5.8023,5.8022,5.8022,0,5.7881,5.7871,5.7939,5.7946,5.7949,5.7998,5.8002,5.8039,5.8032,5.8082,5.8092,5.8081,5.812,5.8104,5.8144,5.8134,5.8212,5.8197,5.8208,5.8203,5.8261,5.8256,5.8452,5.8476,5.8297,5.8299,5.83,0,5.7969,5.8015,5.8027,5.8051,5.806,5.81,5.8121,5.8099,5.8123,5.8143,5.8177,5.8213,5.824,5.8304,5.8299,5.8329,5.8314,5.8381,5.8318,5.8325,5.8314,5.8312,5.8316,5.8393,5.8395,5.8397,5.8398,0,5.8125,5.8118,5.8151,5.8183,5.821,5.8234,5.8254,5.8275,5.8254,5.8283,5.8322,5.8344,5.8386,5.8421,5.8448,5.8453,5.8422,5.8418,5.8433,5.8441,5.8445,5.8443,5.8241,5.8414,5.8412,5.8411,5.841,5.8409,5.824,5.8279,5.8294,5.8332,5.8345,5.8365,5.84,5.8399,5.8432,5.8465,5.845,5.8496,5.8509,5.8542,5.8551,5.8586,5.8559,5.8581,5.8586,5.8592,5.8599,5.844,5.8591,5.859,5.859,5.8589,5.8589,0,5.8394,5.8402,5.8437,5.8468,5.8497,5.8468,5.8488,5.8515,5.8556,5.8571,5.86,5.8645,5.8679,5.8678,5.8709,5.8737,5.8724,5.8746,5.8743,5.8745,5.8621,5.8605,5.8756,5.8756,5.8756,5.8756,5.8756,5.8756,5.8478,5.8542,5.8536,5.8606,5.8613,5.8659,5.8673,5.8691,5.8703,5.8756,5.8785,5.8784,5.8792,5.8824,5.8854,5.8852,5.8865,5.8892,5.8886,5.877,5.8753,5.8737,5.8722,5.8896,5.8896,5.9006,5.9007,5.9008]}]]